Location: Ciula Mare
(45.6000°N, 22.8167°E)
Time: 04:52:49
(UTC+00:00)

Cosmos 676 Rocket - Pass Details

Date: 03 February 2023
Orbit: 754 x 782 km, 74.0° (Epoch: 29 March)

Event Time Altitude Azimuth Distance (km) Brightness Sun altitude
Rises 17:13:19 0° 209° (SSW) 3,247 7.8 -17.0°
Reaches altitude 10° 17:15:44 10° 213° (SSW) 2,320 7.0 -17.4°
Maximum altitude 17:20:57 62° 294° (WNW) 867 4.5 -18.3°
Drops below altitude 10° 17:26:10 10° 16° (NNE) 2,318 6.3 -19.2°
Enters shadow 17:27:41 - 18° (NNE) 2,893 6.8 -19.5°
